This demonstration page uses our WeatherBlox Daily Observations layout. Learn more.

Left ArrowRight Arrow

30.00354, -91.81873

Hourly Observations for September 10, 2022

Temp ( °F °C ) Dew Point ( °F °C ) Humidity (%) Winds ( mph kmh ) Pressure ( in mb ) Visibility ( mi km ) Precip ( " mm )
12:53 am 00:53 Clear 70 21.1 67 19.4 90 90 Calm 29.83 1010 10 16 0.00 0.00
1:53 am 01:53 Clear 70 21.1 67 19.4 90 90 Calm 29.83 1010 9 14 0.00 0.00
2:53 am 02:53 Clear 69 20.6 67 19.4 93 93 Calm 29.83 1010 8 13 0.00 0.00
3:53 am 03:53 Clear 69 20.6 66 18.9 90 90 N 3 6 29.83 1010 10 16 0.00 0.00
4:53 am 04:53 Clear 70 21.1 67 19.4 90 90 undefined N/A 29.84 1011 10 16 0.00 0.00
5:09 am 05:09 Partly Cloudy 69 20.6 67 19.4 93 93 undefined N/A 29.85 1011 7 11 0.00 0.00
5:53 am 05:53 Mostly Cloudy with Mist and Fog 68 20 67 19.4 96 96 N 6 9 29.86 1011 2 3 0.00 0.00
6:03 am 06:03 Mostly Cloudy 69 20.6 67 19.4 93 93 N 3 6 29.86 1011 7 11 0.00 0.00
6:15 am 06:15 Cloudy 70 21.1 68 20 93 93 N 3 6 29.86 1011 8 13 0.00 0.00
6:44 am 06:44 Cloudy with Mist and Fog 69 20.6 68 20 96 96 Calm 29.87 1011 2 3 0.00 0.00
6:53 am 06:53 Partly Cloudy with Mist and Fog 69 20.6 68 20 96 96 Calm 29.87 1011 1 2 0.00 0.00
7:16 am 07:16 Cloudy with Mist and Fog 69 20.6 67 19.4 93 93 N 3 6 29.88 1012 3 5 0.00 0.00
7:53 am 07:53 Cloudy with Mist and Fog 71 21.7 69 20.6 93 93 NE 6 9 29.90 1013 4 6 0.00 0.00
8:08 am 08:08 Cloudy with Mist and Fog 71 21.7 69 20.6 93 93 ENE 5 7 29.91 1013 3 4 0.00 0.00
8:24 am 08:24 Cloudy with Mist and Fog 72 22.2 69 20.6 91 91 ENE 6 9 29.91 1013 1 2 0.00 0.00
8:53 am 08:53 Cloudy with Mist and Fog 72 22.2 70 21.1 93 93 NNE 5 7 29.91 1013 1 2 0.00 0.00
9:03 am 09:03 Cloudy with Mist and Fog 74 23.3 71 21.7 91 91 NE 5 7 29.92 1013 3 5 0.00 0.00
9:23 am 09:23 Cloudy with Mist and Fog 75 23.9 71 21.7 88 88 NE 7 11 29.93 1013 4 6 0.00 0.00
9:53 am 09:53 Mostly Sunny 77 25 70 21.1 79 79 NNE 5 7 29.94 1014 7 11 0.00 0.00
10:53 am 10:53 Sunny 82 27.8 71 21.7 69 69 NE 6 9 29.95 1014 10 16 0.00 0.00
11:53 am 11:53 Mostly Sunny 84 28.9 70 21.1 63 63 Calm 29.95 1014 10 16 0.00 0.00
12:07 pm 12:07 Mostly Cloudy 83 28.3 70 21.1 65 65 VRB 3 6 29.95 1014 10 16 0.00 0.00
12:16 pm 12:16 Partly Cloudy 85 29.4 70 21.1 61 61 VRB 3 6 29.94 1014 10 16 0.00 0.00
12:53 pm 12:53 Partly Cloudy 86 30 70 21.1 59 59 ENE 6 9 29.93 1014 10 16 0.00 0.00
1:53 pm 13:53 Mostly Sunny 88 31.1 68 20 52 52 VRB 5 7 29.92 1013 10 16 0.00 0.00
2:53 pm 14:53 Partly Cloudy 89 31.7 68 20 50 50 VRB 3 6 29.91 1013 10 16 0.00 0.00
3:53 pm 15:53 Mostly Sunny 86 30 67 19.4 53 53 Calm 29.89 1012 10 16 0.00 0.00
4:53 pm 16:53 Mostly Sunny 86 30 69 20.6 57 57 SSW 7 11 29.89 1012 10 16 0.00 0.00
5:53 pm 17:53 Mostly Sunny 86 30 69 20.6 57 57 SSE 6 9 29.90 1013 10 16 0.00 0.00
6:53 pm 18:53 Mostly Cloudy 81 27.2 69 20.6 67 67 ENE 8 13 29.92 1013 10 16 0.00 0.00
7:17 pm 19:17 Cloudy with Light Rain 77 25 70 21.1 79 79 NE 16 26 29.93 1013 2 3 0.16 4.06
7:27 pm 19:27 Cloudy with Nearby Thunderstorms 75 23.9 70 21.1 84 84 NNE 9 15 29.94 1014 2 2 0.30 7.62
7:37 pm 19:37 Cloudy with Heavy Rain 75 23.9 69 20.6 82 82 Calm 29.95 1014 2 3 0.43 10.92
7:53 pm 19:53 Cloudy with Nearby Thunderstorms 75 23.9 70 21.1 84 84 NW 6 9 29.95 1014 2 3 0.59 14.99
8:10 pm 20:10 Cloudy with Strong Thunderstorms 74 23.3 70 21.1 87 87 WNW 9 15 29.96 1014 3 4 0.10 2.54
8:18 pm 20:18 Cloudy with Thunderstorms 74 23.3 70 21.1 87 87 W 8 13 29.96 1014 4 6 0.12 3.05
8:25 pm 20:25 Cloudy with Light Rain 75 23.9 70 21.1 84 84 W 10 17 29.96 1014 6 10 0.12 3.05
8:53 pm 20:53 Mostly Cloudy with Light Rain 74 23.3 70 21.1 87 87 WSW 7 11 29.96 1015 8 13 0.14 3.56
9:53 pm 21:53 Clear 73 22.8 70 21.1 90 90 WSW 5 7 29.98 1015 10 16 0.01 0.25
10:53 pm 22:53 Clear 73 22.8 70 21.1 90 90 Calm 29.99 1016 10 16 0.00 0.00
11:53 pm 23:53 Clear 73 22.8 70 21.1 90 90 N 3 6 29.99 1016 10 16 0.00 0.00

Powered by AerisWeather